Flag for Canada Weather past 2 weeks in Sault Ste. Marie, Ontario, Canada

34 °F

Scattered clouds.

Feels Like: 28 °F
Forecast: 27 / 34 °F
Wind: 7 mph from Northeast

Location: Sault Ste Marie

Current Time: Nov 29, 2015 at 1:07:11 PM

Latest Report: Nov 29, 2015 at 12:00 PM

Visibility: 15 mi

Pressure: 30.45 "Hg

Humidity: 60%

Dew point: 21 °F

Location of Sault Ste. MarieLocation

Historic Weather in Sault Ste. Marie — Graph


Sault Ste. Marie temperature yesterday

Maximum temperature yesterday: 37 °F (at 3:00 PM)
Minimum temperature yesterday: 19 °F (at 5:00 AM)
Average temperature yesterday: 28 °F

Past Weeks' High & Low Weather Summary

High55 °F (Nov 18, 7:00 PM)100% (Nov 15, 3:00 AM)30.51 "Hg (Nov 15, 3:00 AM)
Low9 °F (Nov 22, 10:00 PM)35% (Nov 28, 3:00 PM)29.42 "Hg (Nov 18, 7:00 PM)
Average36 °F76%30.09 "Hg
* Reported Nov 14 12:00 Noon — Nov 29 12:00 Noon, Sault Ste. Marie, Weather by CustomWeather, © 2015

Note: Actual official high and low records may vary slightly from our data, if they occured in-between our weather recording intervals... More about our weather records


Sault Ste. Marie weather history for previous 24 hours

Time TempWeatherWind HumidityBarometerVisibility
12:00 PM
Sun, Nov 29
34 °FScattered clouds.7 mph60%30.45 "Hg15 mi
11:00 AM34 °FPassing clouds.9 mph65%30.44 "Hg15 mi
10:00 AM32 °FPassing clouds.9 mph69%30.41 "Hg15 mi
9:00 AM30 °FPartly sunny.10 mph75%30.40 "Hg15 mi
8:00 AM28 °FPartly sunny.7 mph86%30.39 "Hg15 mi
7:00 AM28 °FPassing clouds.5 mph86%30.37 "Hg15 mi
6:00 AM30 °FOvercast.7 mph80%30.36 "Hg15 mi
5:00 AM34 °FOvercast.5 mph65%30.33 "Hg15 mi
4:00 AM36 °FPassing clouds.10 mph70%30.32 "Hg15 mi
3:00 AM36 °FOvercast.9 mph70%30.32 "Hg15 mi
2:00 AM34 °FOvercast.8 mph70%30.31 "Hg15 mi
1:00 AM32 °FPassing clouds.10 mph69%30.31 "Hg15 mi
12:00 AM28 °FChilly.6 mph74%30.31 "Hg15 mi
11:00 PM
Sat, Nov 28
30 °FClear.8 mph64%30.30 "Hg15 mi
10:00 PM30 °FPassing clouds.6 mph64%30.31 "Hg15 mi
9:00 PM32 °FPassing clouds.9 mph60%30.31 "Hg15 mi
8:00 PM32 °FClear.10 mph55%30.31 "Hg15 mi
7:00 PM32 °FClear.10 mph55%30.31 "Hg15 mi
6:00 PM32 °FClear.12 mph51%30.32 "Hg15 mi
5:00 PM34 °FClear.12 mph44%30.31 "Hg15 mi
4:00 PM36 °FSunny.10 mph41%30.30 "Hg15 mi
3:00 PM37 °FSunny.7 mph35%30.31 "Hg15 mi
2:00 PM36 °FSunny.7 mph38%30.32 "Hg15 mi
1:00 PM34 °FSunny.9 mph41%30.34 "Hg15 mi
Weather by CustomWeather, © 2015

See weather overviewHow to use our weather pages